Location: Niedergestelen
(46.3129°N, 7.7822°E)
Time: 16:08:00
(UTC+00:00)

Cosmos 2366 rocket - Pass Details

Date: 01 December 2020
Orbit: 955 x 997 km, 82.9° (Epoch: 27 January)

Event Time Altitude Azimuth Distance (km) Brightness Sun altitude
Rises 16:29:15 0° 354° (N) 3,668 6.8 -7.7°
Reaches altitude 10° 16:31:52 10° 360° (N) 2,712 6.1 -8.1°
Maximum altitude 16:37:54 52° 76° (ENE) 1,174 4.1 -9.1°
Drops below altitude 10° 16:43:52 10° 153° (SSE) 2,679 6.3 -10.1°
Sets 16:46:25 0° 158° (SSE) 3,620 7.0 -10.5°
